User: anonymous   Login
Location: Boullarre
(49.1305°N, 3.0047°E)
Time: 13:01:00
(UTC+00:00)
Language:

Cosmos 1606 Rocket - Orbit

View from above orbital plane
View from above orbital plane
View from above satellite
View from above satellite

Ground track
Ground track

The orbit data is extracted from the following two-line orbital elements,

1 15370U 84111B   23151.92363462  .00000512  00000-0  58036-4 0  9992
2 15370  82.5145 128.3175 0022388  81.7925 278.5828 14.84266220 65551
Epoch (UTC): 31 May 2023 22:10:02
Eccentricity: 0.0022388
inclination: 82.5145°
perigee height: 600 km
apogee height: 631 km
right ascension of ascending node: 128.3175°
argument of perigee: 81.7925°
revolutions per day: 14.84266220
mean anomaly at epoch: 278.5828°
orbit number at epoch: 6555

The dashed part of the orbit path shows where the satellite is in the earth's shadow,  

DLR